Temperature
19 16 16 17 17 19 20 20 19 19 20 20 19 18 17 17 17 16 16 16 16 16 16 16 17 17 17 17 17 17 17 16 16 16 16 16 15 15 15 14 14 14 13 13
17 17 17 18 18 18 19 19 19 19 20 20 19 18 16 15 16 16 16 15 15 14 14 15 15 15 16 16 16 16 16 15 15 15 15 15 15 14 14 13 13 13 12 12
17 18 19 18 18 19 18 18 19 19 19 19 19 18 16 15 15 15 15 15 14 14 14 14 14 14 15 15 15 15 15 15 14 14 14 14 14 13 13 12 12 12 11 11
17 18 19 19 19 18 17 18 18 19 18 17 19 17 16 15 15 15 15 14 14 14 14 13 13 14 14 14 14 14 14 14 14 13 13 13 13 12 12 11 11 11 10 10
17 18 18 18 19 18 18 19 19 19 18 17 17 16 15 14 15 15 15 14 14 14 13 13 13 13 13 13 14 14 14 13 13 13 13 12 12 12 11 10 10 9 9 8
18 19 18 19 20 19 19 19 17 15 15 16 16 15 15 14 15 15 15 15 14 13 13 13 12 13 13 13 13 13 13 13 13 12 12 12 12 11 11 10 9 9 8 7
18 19 19 20 20 20 19 17 15 16 15 15 16 16 15 15 15 16 15 15 14 13 13 12 12 12 12 13 13 13 13 13 12 12 12 12 11 11 10 9 9 8 7 6
17 17 19 19 19 18 17 17 16 16 15 16 17 15 15 15 15 17 16 15 14 13 12 12 12 12 12 12 12 12 12 12 12 12 11 11 10 10 9 8 7 7 6 6
16 17 19 19 19 19 17 16 16 15 16 15 15 15 15 14 14 15 15 14 13 12 12 12 12 12 12 12 12 12 12 11 11 11 10 10 9 8 7 7 6 6 5 5
16 17 18 20 20 19 18 16 13 14 15 15 15 15 15 15 14 14 14 14 13 12 11 11 11 11 11 11 11 11 11 11 10 10 9 8 7 7 6 6 5 5 5 4
16 16 17 18 19 19 17 16 15 13 14 15 15 15 15 15 14 14 14 14 13 11 11 11 11 11 11 11 10 10 10 10 9 9 8 7 6 6 5 5 5 4 4 4
14 13 15 16 17 18 18 17 14 15 15 13 14 15 16 14 14 14 14 13 12 11 11 11 10 10 10 10 10 9 9 8 8 7 7 6 5 5 5 4 4 4 4 4
14 13 14 15 16 16 17 17 16 14 13 12 13 15 15 13 13 14 13 12 11 10 10 10 10 10 10 9 9 8 8 7 7 6 6 5 5 4 4 4 4 4 4 4
12 12 13 15 15 15 15 16 16 15 14 13 14 15 15 13 12 12 12 11 10 9 9 9 9 9 9 8 8 7 7 7 6 6 5 5 4 4 4 4 4 4 4 3
11 12 13 13 13 14 14 15 15 15 14 14 15 14 15 13 12 12 11 10 9 8 8 8 9 9 8 8 7 6 6 6 5 5 5 4 4 4 4 4 4 4 4 3
9 11 12 12 13 13 13 14 14 14 14 14 14 14 13 12 12 11 10 10 9 8 7 7 8 8 8 7 6 6 6 5 5 5 4 4 4 4 4 4 4 4 4 4
9 9 10 9 11 12 11 13 14 14 14 14 14 14 12 11 11 11 10 10 9 8 7 7 8 8 7 6 6 6 5 5 5 4 4 4 4 4 4 4 4 4 4 4
8 8 7 8 10 10 11 12 13 13 13 13 13 12 11 10 10 10 10 9 8 7 6 7 7 7 6 6 5 5 5 5 4 4 4 4 4 4 4 4 4 4 4 4
6 7 7 7 8 9 11 12 12 12 12 12 12 10 9 8 9 8 9 8 7 6 7 7 7 6 6 5 5 5 5 4 4 4 4 4 5 5 5 5 5 4 4 3
6 6 7 7 8 9 10 11 11 11 11 11 10 9 8 9 9 7 7 7 6 6 6 6 6 5 5 5 5 5 4 4 4 4 5 5 5 5 5 5 4 3 2 1
7 6 7 6 7 8 9 9 10 11 10 9 9 9 8 7 7 6 6 6 6 6 6 5 5 5 5 5 5 4 4 4 4 5 5 5 5 5 4 3 3 2 1 -0
6 6 6 6 6 7 8 8 8 8 7 7 8 7 6 5 5 5 6 5 5 5 5 4 4 4 4 5 5 5 5 5 5 5 5 4 4 4 3 2 1 0 -0 -1
5 6 6 6 6 7 7 7 8 8 7 7 6 6 6 5 5 5 5 5 5 4 4 4 4 4 5 5 5 5 5 5 5 4 4 4 3 2 1 1 -0 -1 -1 -2
6 6 6 6 6 7 7 7 7 7 7 7 7 6 6 5 5 5 5 4 4 4 4 4 5 5 5 5 5 5 5 5 4 4 3 3 2 1 0 -0 -1 -1 -2 -3
6 7 6 6 7 7 7 6 6 6 6 6 6 6 6 6 5 5 4 4 4 4 4 5 5 5 5 5 5 5 5 4 4 3 3 2 1 0 -1 -1 -2 -2 -3 -3
6 6 7 7 7 6 6 6 6 6 6 6 6 6 6 6 5 5 4 4 4 5 5 5 5 5 5 5 5 5 4 4 4 3 2 1 0 -0 -1 -1 -2 -2 -3 -3
Wind_Speed
4 4 6 8 8 7 4 4 6 7 5 3 4 4 4 1 4 7 9 10 11 10 8 9 9 10 9 8 9 7 8 6 6 5 6 6 6 5 6 9 13 13 13 13
4 5 10 7 5 5 5 4 7 8 2 2 1 2 2 2 3 5 7 7 9 9 9 9 9 8 9 9 9 9 8 8 7 5 5 5 6 6 6 7 11 13 12 11
10 8 4 7 6 6 6 6 7 8 6 2 1 3 1 2 3 4 6 7 9 11 11 10 9 9 9 9 9 9 9 9 9 8 7 7 5 4 4 5 5 8 10 10
8 8 5 5 6 8 7 9 9 8 4 5 3 4 5 2 3 6 8 9 10 11 11 10 10 10 10 10 9 10 10 10 9 8 9 8 6 4 3 2 3 5 7 7
9 8 9 10 11 10 10 7 6 6 5 4 3 5 6 4 7 12 12 12 12 12 12 12 11 11 10 10 10 10 11 10 9 9 9 9 7 4 2 2 4 4 4 5
9 6 9 11 9 9 7 3 6 4 4 3 8 8 7 9 12 12 15 15 14 13 13 13 12 11 10 9 9 9 11 10 8 9 8 9 8 6 4 3 3 2 2 2
6 5 5 5 3 3 5 5 4 5 3 8 6 5 10 10 10 13 17 16 15 14 14 14 14 12 11 9 9 9 10 9 8 8 7 7 7 6 5 3 2 2 2 2
8 10 8 9 11 11 8 10 8 6 7 8 4 7 8 7 7 9 12 15 16 15 14 14 12 11 10 9 8 7 8 8 7 7 7 5 5 4 3 2 1 1 1 2
10 9 5 7 8 11 8 8 9 8 4 5 7 8 8 3 3 11 15 17 18 16 15 13 11 10 9 9 7 7 8 7 6 6 6 4 4 3 2 1 1 1 2 3
9 6 6 3 4 4 8 9 7 7 6 7 7 6 7 8 10 14 18 19 17 15 14 12 10 9 7 7 6 5 6 6 5 4 3 2 2 1 1 1 2 3 4 3
4 5 6 1 7 8 5 6 6 6 6 7 7 9 8 12 15 18 19 17 17 16 15 13 10 8 8 8 6 5 4 4 3 2 2 1 0 1 1 2 3 4 4 4
3 4 3 6 5 2 5 8 9 6 7 6 5 9 6 9 13 14 14 15 16 16 15 13 11 10 9 8 6 5 4 3 2 1 1 1 1 2 2 3 4 4 4 5
2 5 3 8 6 5 3 2 4 4 3 5 5 9 5 2 8 12 15 17 17 18 16 13 12 11 10 8 5 4 3 3 2 1 1 2 2 2 3 4 4 4 5 5
4 3 5 7 7 4 5 3 1 3 3 5 8 8 6 3 9 14 17 19 19 19 18 16 13 11 9 7 6 4 3 2 2 2 2 2 3 3 4 5 5 5 5 6
5 1 3 6 7 5 6 8 6 7 8 9 9 9 10 10 12 15 18 20 21 21 20 18 15 12 11 8 6 4 3 3 3 3 3 4 4 4 4 5 6 6 6 6
3 1 2 5 7 7 9 10 10 10 9 9 9 11 7 4 9 13 19 22 23 22 21 19 17 15 12 9 7 5 4 3 3 3 4 5 5 5 5 6 6 6 7 6
1 3 2 5 5 6 9 9 10 9 8 9 12 11 5 7 15 20 21 22 21 21 20 19 16 14 11 9 7 5 4 3 3 4 5 5 5 6 7 6 6 6 6 5
5 4 3 2 1 7 9 4 5 7 8 7 7 4 7 6 6 6 9 13 17 18 17 16 13 11 8 6 5 4 3 3 3 4 5 6 6 6 6 6 6 5 4 3
6 6 4 3 3 8 9 5 2 4 7 5 5 4 8 11 10 8 7 12 13 13 14 13 11 10 7 6 5 4 2 2 3 4 5 6 5 6 6 6 5 4 4 5
4 4 4 3 3 6 6 6 6 3 7 5 3 8 11 8 7 5 10 16 16 14 12 12 10 8 7 5 4 4 2 1 3 5 5 5 4 4 5 6 6 5 6 6
4 3 2 4 6 7 5 9 7 3 6 8 1 7 7 4 6 13 16 16 15 13 12 10 9 7 5 5 4 3 0 3 4 3 4 6 7 7 7 7 6 6 6 6
2 1 2 2 4 8 6 8 4 4 4 3 6 10 14 17 19 18 17 16 14 13 11 8 7 5 4 3 3 2 2 3 3 6 8 8 8 7 7 7 6 6 6 7
3 5 3 5 7 6 6 7 9 5 3 3 7 14 19 20 19 18 15 13 12 10 8 6 7 5 3 2 3 3 2 3 6 8 8 7 8 7 6 6 6 5 6 6
4 3 3 5 7 6 7 5 3 3 7 9 12 15 17 19 18 16 13 11 9 7 7 5 6 5 3 3 4 2 3 6 8 8 7 6 6 6 6 5 4 4 6 7
5 3 3 5 5 4 6 5 8 11 13 14 13 14 15 17 15 14 12 10 8 6 5 5 6 5 4 4 5 5 6 8 9 8 6 6 5 5 5 5 4 5 4 6
3 4 3 3 1 1 3 6 10 13 13 13 14 13 12 13 13 12 10 7 7 7 6 6 6 5 5 6 6 6 6 7 8 7 6 4 4 4 5 5 6 7 7 12
Wind_Direction
120 110 196 206 192 191 193 225 264 267 284 332 311 309 320 47 140 174 182 180 174 155 121 103 101 103 95 84 85 84 88 84 95 98 95 89 78 69 65 64 60 61 62 63
65 244 226 201 178 170 191 249 276 291 285 194 273 333 22 72 154 177 179 177 166 146 130 113 98 95 98 99 93 85 83 79 75 82 87 93 96 81 72 60 56 58 61 61
192 229 195 171 194 198 216 217 246 264 314 327 202 317 7 45 98 134 157 162 163 164 152 132 115 106 105 101 97 96 88 83 79 82 90 90 77 66 50 42 40 42 58 62
217 235 185 182 210 188 247 230 226 254 284 276 175 264 262 190 178 186 178 170 167 161 149 138 128 120 115 111 105 101 96 90 85 86 93 93 94 88 66 51 41 35 46 52
223 204 186 209 224 186 219 233 220 240 232 267 244 207 269 180 214 212 194 183 173 161 151 145 138 130 123 117 112 107 99 91 90 93 100 102 99 103 99 69 54 38 24 31
228 210 189 207 226 198 211 71 48 50 89 256 239 193 240 211 213 202 192 186 176 161 149 142 135 129 122 118 115 111 106 101 100 101 103 109 112 115 102 73 50 24 358 356
265 263 227 183 182 164 144 109 5 337 352 245 246 198 237 231 221 198 188 180 171 161 152 148 145 142 137 130 120 117 116 112 108 104 101 105 113 113 107 100 65 26 357 334
213 259 228 198 200 205 186 157 175 218 237 268 279 228 250 271 241 191 174 170 168 164 157 153 151 146 139 131 123 120 116 113 111 109 103 101 107 109 107 98 80 1 304 290
190 238 264 220 205 179 166 190 188 175 229 261 272 277 296 320 188 171 169 172 175 168 158 153 149 142 138 133 130 130 125 125 123 115 110 105 105 103 94 63 15 321 309 304
170 231 272 249 139 177 164 157 119 146 184 246 267 256 244 223 197 182 181 182 174 162 153 150 147 141 132 125 119 119 132 134 123 115 115 113 102 91 67 13 338 320 314 313
136 190 299 343 179 191 145 145 154 155 175 192 250 261 228 212 196 191 189 179 167 161 156 152 144 132 121 115 117 124 121 113 116 120 106 97 6 354 353 333 311 305 301 302
48 125 271 275 267 280 195 188 156 173 226 203 209 256 262 225 199 186 177 167 159 155 152 147 139 131 126 123 128 130 128 142 161 163 167 266 305 327 329 314 304 300 296 294
28 93 22 341 341 5 48 106 147 140 144 189 210 262 308 227 174 172 166 161 157 154 149 143 140 139 136 134 138 138 159 187 201 202 227 275 295 306 307 304 303 301 295 294
92 105 173 212 236 297 304 294 177 144 194 237 231 250 283 216 176 170 165 161 158 158 153 149 144 140 137 139 149 157 198 212 216 220 238 258 271 278 285 291 295 293 291 289
62 87 261 258 272 279 263 270 262 224 213 218 241 236 245 218 193 176 163 159 159 160 159 156 150 146 145 148 158 179 203 216 221 222 235 251 266 275 281 284 287 290 290 286
54 170 304 286 277 286 278 267 257 249 234 232 246 254 248 186 154 162 166 167 167 165 161 156 152 152 153 157 169 188 206 225 227 231 247 263 273 280 279 279 284 289 291 291
239 179 202 265 289 324 274 247 236 236 226 214 234 243 174 174 180 180 175 173 169 162 157 155 153 152 152 159 170 183 205 224 230 246 264 271 272 278 282 288 292 291 294 297
181 164 180 255 313 238 248 265 256 257 265 255 260 263 188 170 142 134 154 156 153 151 149 145 142 140 141 149 164 173 193 217 239 263 277 284 288 290 295 299 299 301 310 328
178 163 166 172 248 281 294 300 326 296 288 272 234 158 124 109 83 63 95 122 128 130 131 130 130 130 137 151 162 157 163 228 270 288 298 305 307 308 318 332 345 1 24 29
79 115 140 156 222 253 271 330 329 301 293 311 190 155 145 127 140 136 114 115 116 116 120 122 123 126 139 148 148 140 160 286 308 313 318 333 352 8 24 36 43 43 47 36
16 33 174 201 233 266 292 320 327 255 280 331 62 140 138 98 119 121 115 111 112 113 114 118 126 134 143 141 134 127 39 329 322 346 27 42 51 63 64 61 55 48 41 29
284 297 259 191 227 261 330 348 340 277 313 7 88 105 106 106 110 112 111 111 112 114 116 121 126 125 121 125 125 92 10 342 32 63 66 61 55 62 64 60 50 40 29 17
230 205 217 220 240 275 302 276 272 240 183 125 115 119 120 117 115 113 112 113 116 121 123 123 125 116 99 100 108 69 6 54 85 82 72 65 62 55 51 49 36 21 10 3
277 200 226 271 281 308 328 333 5 106 116 113 119 120 119 118 118 118 119 120 122 121 118 116 113 103 77 52 60 68 71 95 99 90 77 65 58 47 34 28 18 8 358 352
258 243 240 256 279 323 6 39 83 96 102 105 104 108 115 118 120 122 122 120 116 109 102 104 105 95 68 53 56 68 96 107 100 90 78 63 51 40 23 11 354 352 334 336
232 223 244 272 312 62 43 62 92 99 102 108 110 105 105 115 118 115 111 108 107 102 100 97 91 81 68 70 71 76 94 105 102 88 71 58 48 36 24 11 3 356 354 344
Height
1491 1497 1502 1501 1500 1501 1502 1505 1507 1503 1495 1495 1497 1499 1496 1494 1494 1496 1497 1498 1500 1503 1506 1509 1513 1517 1520 1523 1526 1528 1530 1532 1533 1535 1535 1536 1536 1537 1537 1537 1537 1537 1536 1536
1495 1498 1492 1492 1495 1499 1502 1505 1506 1500 1494 1495 1498 1499 1497 1496 1496 1497 1499 1501 1503 1505 1507 1509 1512 1515 1518 1521 1524 1527 1530 1531 1533 1535 1535 1536 1536 1536 1536 1535 1535 1534 1533 1533
1494 1490 1486 1491 1495 1499 1501 1504 1503 1502 1496 1495 1498 1502 1500 1498 1497 1498 1500 1501 1503 1505 1507 1509 1512 1514 1517 1520 1523 1526 1529 1531 1532 1534 1535 1535 1535 1534 1534 1533 1532 1531 1530 1529
1489 1484 1486 1489 1492 1495 1503 1494 1496 1498 1504 1509 1501 1515 1502 1499 1498 1497 1498 1500 1502 1504 1506 1508 1510 1513 1516 1519 1522 1525 1528 1530 1531 1533 1534 1534 1534 1534 1533 1531 1530 1529 1527 1526
1484 1479 1483 1488 1486 1488 1491 1486 1491 1494 1500 1507 1504 1511 1508 1500 1498 1494 1494 1496 1499 1502 1504 1507 1510 1512 1515 1518 1521 1524 1527 1529 1530 1532 1533 1533 1533 1532 1530 1529 1527 1525 1524 1522
1475 1473 1475 1477 1475 1479 1481 1487 1494 1501 1507 1514 1502 1510 1507 1496 1488 1484 1487 1491 1495 1499 1503 1506 1509 1512 1515 1518 1521 1523 1526 1527 1529 1530 1531 1531 1530 1530 1528 1526 1524 1522 1520 1518
1478 1474 1471 1471 1476 1478 1482 1498 1515 1514 1522 1515 1495 1501 1497 1479 1474 1475 1479 1485 1492 1496 1500 1504 1507 1511 1514 1518 1521 1523 1525 1527 1528 1529 1529 1528 1528 1526 1524 1522 1520 1518 1517 1515
1486 1483 1469 1467 1470 1478 1483 1492 1512 1519 1519 1508 1494 1499 1485 1474 1471 1473 1477 1483 1489 1494 1498 1502 1507 1511 1514 1518 1521 1524 1525 1526 1527 1527 1527 1526 1524 1523 1521 1519 1517 1516 1514 1513
1483 1479 1462 1460 1460 1467 1481 1488 1484 1500 1502 1508 1502 1491 1479 1472 1470 1470 1474 1480 1484 1490 1496 1501 1507 1511 1515 1518 1521 1524 1525 1526 1526 1526 1525 1523 1522 1520 1518 1516 1515 1514 1512 1511
1469 1475 1463 1458 1459 1461 1466 1474 1492 1500 1508 1511 1499 1492 1485 1473 1471 1470 1472 1476 1482 1489 1495 1501 1507 1511 1515 1519 1521 1524 1525 1526 1525 1524 1523 1521 1519 1517 1516 1514 1513 1512 1510 1509
1466 1474 1468 1462 1462 1465 1470 1475 1479 1492 1495 1501 1503 1492 1465 1461 1461 1464 1467 1473 1480 1487 1493 1500 1506 1511 1515 1518 1521 1523 1525 1525 1524 1522 1521 1519 1517 1515 1514 1512 1511 1510 1508 1507
1469 1476 1477 1468 1459 1457 1460 1464 1476 1487 1488 1491 1493 1484 1454 1454 1454 1459 1465 1472 1479 1485 1492 1499 1504 1509 1513 1517 1520 1522 1523 1523 1522 1520 1519 1517 1515 1513 1512 1511 1509 1508 1507 1505
1471 1478 1485 1479 1472 1465 1463 1463 1467 1475 1482 1489 1490 1477 1453 1450 1452 1457 1463 1470 1476 1483 1489 1496 1502 1507 1511 1516 1519 1521 1521 1521 1520 1518 1517 1515 1513 1512 1510 1509 1507 1506 1505 1503
1470 1479 1485 1485 1479 1472 1469 1466 1466 1472 1482 1482 1476 1466 1455 1453 1453 1455 1460 1466 1472 1479 1485 1492 1498 1504 1510 1514 1516 1518 1519 1519 1518 1517 1516 1514 1512 1510 1509 1507 1506 1504 1502 1500
1474 1480 1478 1476 1473 1471 1469 1468 1466 1468 1469 1472 1464 1459 1452 1449 1449 1451 1456 1462 1469 1476 1481 1488 1494 1500 1506 1510 1513 1515 1516 1517 1516 1515 1514 1513 1511 1509 1507 1505 1504 1502 1500 1498
1478 1481 1479 1477 1471 1470 1468 1464 1463 1462 1460 1459 1455 1452 1444 1444 1447 1452 1455 1459 1464 1471 1477 1484 1491 1498 1503 1507 1510 1513 1515 1516 1515 1514 1513 1511 1509 1508 1506 1504 1502 1500 1498 1495
1481 1482 1483 1485 1476 1472 1473 1461 1457 1454 1450 1450 1451 1445 1443 1444 1445 1446 1450 1455 1460 1467 1473 1481 1488 1494 1500 1505 1509 1512 1514 1515 1514 1513 1512 1510 1508 1506 1504 1502 1500 1497 1494 1491
1482 1484 1487 1488 1480 1483 1466 1454 1452 1451 1447 1445 1443 1441 1441 1441 1444 1449 1453 1457 1462 1468 1475 1481 1488 1494 1500 1504 1508 1510 1512 1513 1513 1512 1511 1509 1507 1504 1502 1499 1496 1493 1490 1487
1477 1482 1487 1489 1485 1476 1463 1454 1453 1452 1448 1442 1441 1441 1443 1445 1449 1455 1458 1461 1466 1471 1477 1483 1490 1496 1500 1504 1508 1510 1511 1512 1512 1511 1509 1507 1504 1502 1499 1496 1493 1490 1486 1483
1478 1480 1486 1488 1484 1478 1466 1457 1454 1453 1452 1443 1441 1442 1445 1446 1453 1461 1463 1466 1471 1477 1481 1487 1492 1497 1501 1505 1508 1510 1511 1511 1510 1509 1507 1505 1502 1499 1496 1493 1490 1486 1483 1480
1482 1484 1485 1486 1485 1476 1465 1460 1455 1460 1456 1449 1444 1444 1446 1448 1452 1460 1465 1470 1476 1481 1486 1491 1495 1499 1503 1505 1508 1510 1510 1510 1509 1507 1505 1503 1500 1497 1494 1491 1488 1485 1482 1478
1484 1486 1485 1486 1486 1479 1465 1461 1462 1460 1456 1452 1448 1448 1450 1452 1457 1462 1468 1474 1480 1485 1489 1494 1498 1501 1505 1507 1509 1510 1510 1509 1507 1505 1503 1501 1499 1496 1493 1490 1487 1484 1480 1476
1484 1484 1483 1482 1479 1469 1464 1462 1458 1455 1454 1453 1452 1453 1454 1458 1463 1468 1473 1479 1484 1488 1492 1497 1501 1504 1506 1508 1509 1510 1509 1508 1506 1505 1503 1500 1498 1495 1493 1490 1486 1483 1479 1475
1480 1478 1479 1476 1470 1467 1463 1459 1456 1454 1454 1455 1456 1458 1459 1463 1468 1473 1478 1483 1487 1492 1496 1500 1503 1506 1508 1509 1510 1510 1509 1508 1507 1505 1503 1500 1498 1495 1492 1490 1487 1483 1479 1475
1479 1476 1475 1472 1468 1466 1463 1461 1459 1458 1459 1461 1463 1465 1467 1469 1474 1477 1482 1487 1492 1496 1500 1503 1506 1508 1509 1510 1511 1511 1510 1509 1507 1505 1503 1500 1498 1496 1493 1490 1487 1484 1480 1477
1475 1474 1473 1470 1468 1468 1467 1465 1464 1464 1465 1467 1468 1471 1474 1476 1479 1483 1487 1492 1497 1500 1503 1506 1508 1509 1511 1512 1512 1512 1511 1510 1508 1505 1503 1501 1499 1497 1494 1492 1489 1486 1483 1479